DECAYED

OBJECT C, 49317 (Decayed)

Orbit data source: Space-Track

You're viewing an Uncataloged Satellite

Recently launched and/or uncataloged satellites may have evolving metadata. Metadata may include but not limited to: Owner, Maufacturer, Bus, Motor, and Mission.

OBJECT C, 49317 was a Chinese satellite in LEO that was launched on Thu, 14 Oct 2021 UTC via a CHANG ZHENG 2D launch vehicle from the Taiyaun Space Center, China (TSC). Unknown objects in Earth's orbit typically refer to objects detected orbiting the Earth but have not yet been identified or cataloged. These objects could be anything from previously untracked satellites, spent rocket stages, debris from satellite collisions, or even natural meteoroids temporarily captured by Earth's gravity. This object's orbit decayed before it could be identified.

Not visible in the next 10 days
Identifier
49317, 2021-091C
Orbit
Decayed
Country
Flag of CNCN / PRC
Related business
None
Manufacturer
Unknown
Mission
Decayed Commercial Technology
Bus & Motor
Unknown
Mass
Unknown
Launch date (UTC)
2021-10-14 (5 years ago)
Launch vehicle
CHANG ZHENG 2D
Launch site
Taiyaun Space Center, China (TSC)
Object type
Unknown
Shape & HBR
Box, 0.3 m
Radar Cross Section
0.375 m², Medium (>0.1 m² and < 1m²)

Expand to show TLE details & history
Last TLE update: 4 months ago

TLE from 4 months ago
0 OBJECT C
1 49317U 21091C   26056.41031016  .13315952  25188-5  26957-3 0  9992
2 49317  97.3070 277.5170 0007997 271.4801  88.5586 16.46679830244321
Epoch: 2026-02-25T09:50Z
TLE epoch observation values (Epoch: 2026-02-25T09:50:50.797Z)
Latitude
-0.00006°
Longitude
-25.47053°
Altitude
151.229 km
Speed
7.815 km/s
True Right ascension
18h 30m 04s
True Declination
0° 00' 00"
Sunlit
Object was in daylight at epoch
Visualization orbit readout
Latitude
Unknown
Longitude
Unknown
Altitude
Unknown
Speed
Unknown
Apparent Right ascension
Unknown
Apparent Declination
Unknown
Sunlit
N/A
Visualization observer readout
Local Sidereal Time
21:42:19
Azimuth
Unknown
Elevation
Unknown
Doppler factor
Unknown
Orbital elements
Apogee altitude
150.105 km
Perigee altitude
139.672 km
Semi-major axis
6,523.025 km
Eccentricity
0.0008
Inclination
97.307°
RAAN
277.517°
Arg. of periapsis
271.4801°
True anomaly
88.65021°
Mean anomaly
88.5586°
Eccentric anomaly
88.60441°
Mean motion
4.11974 °/min
Orbital period
87.38 mins
BSTAR
0.00026957
Loading maneuver chart data...
Computing Atmospheric mass density...
Loading historical data...
Loading historical data...
Loading historical data...
Loading historical data...
Loading historical data...
Loading historical data...
Loading historical data...

Documentation

Showing up to 5 results
|